This demonstration page uses our WeatherBlox Daily Observations layout. Learn more.

Left ArrowRight Arrow

31.31129, -92.44514

Hourly Observations for December 30, 2020

Temp ( °F °C ) Dew Point ( °F °C ) Humidity (%) Winds ( mph kmh ) Pressure ( in mb ) Visibility ( mi km ) Precip ( " mm )
12:36 am 00:36 Cloudy 60 15.6 55 12.8 84 84 SE 10 17 30.05 1018 10 16 0.00 0.00
12:53 am 00:53 Cloudy 60 15.6 55 12.8 84 84 SE 9 15 30.06 1018 10 16 0.00 0.00
1:53 am 01:53 Cloudy 60 15.6 57 13.9 90 90 SE 14 22 30.05 1018 10 16 0.00 0.00
2:16 am 02:16 Cloudy 60 15.6 57 13.9 90 90 SE 16 26 30.04 1017 9 14 0.00 0.00
2:53 am 02:53 Cloudy 60 15.6 57 13.9 90 90 SE 15 24 30.04 1017 8 13 0.00 0.00
3:53 am 03:53 Cloudy 61 16.1 59 15 93 93 SE 15 24 30.02 1017 9 14 0.00 0.00
4:08 am 04:08 Cloudy 60 15.6 59 15 96 96 SE 15 24 30.00 1016 9 14 0.00 0.00
4:15 am 04:15 Cloudy 61 16.1 59 15 93 93 SE 17 28 30.00 1016 9 14 0.00 0.00
4:53 am 04:53 Cloudy 61 16.1 59 15 93 93 SE 14 22 30.00 1016 10 16 0.00 0.00
5:25 am 05:25 Cloudy 61 16.1 59 15 93 93 SE 13 20 30.00 1016 10 16 0.00 0.00
5:41 am 05:41 Cloudy 61 16.1 59 15 93 93 SE 15 24 29.99 1016 10 16 0.00 0.00
5:53 am 05:53 Cloudy 62 16.7 60 15.6 93 93 SE 12 19 30.01 1016 9 14 0.00 0.00
6:53 am 06:53 Cloudy 63 17.2 61 16.1 93 93 SE 13 20 30.01 1016 7 11 0.00 0.00
7:35 am 07:35 Cloudy with Rain 63 17.2 61 16.1 93 93 SE 13 20 30.01 1016 2 3 0.02 0.51
7:49 am 07:49 Cloudy with Light Rain 63 17 61 16 94 94 SE 13 20 30.01 1016 3 5 0.03 0.76
7:53 am 07:53 Cloudy with Light Rain 63 17.2 62 16.7 97 97 SE 10 17 30.02 1017 3 4 0.03 0.76
8:53 am 08:53 Cloudy with Light Rain 63 17.2 62 16.7 97 97 SE 15 24 30.02 1017 2 3 0.08 2.03
9:00 am 09:00 Cloudy 63 17.2 62 16.7 97 97 SSE 15 24 30.01 1016 9 14 0.00 0.00
9:41 am 09:41 Cloudy with Light Rain 63 17.2 62 16.7 97 97 S 10 17 30.03 1017 10 16 0.00 0.00
9:53 am 09:53 Cloudy 63 17.2 62 16.7 97 97 SSE 14 22 30.04 1017 9 14 0.00 0.00
9:55 am 09:55 Cloudy 64 17.8 62 16.7 93 93 SSE 13 20 30.03 1017 9 14 0.00 0.00
10:53 am 10:53 Cloudy 66 18.9 63 17.2 90 90 SSE 13 20 30.03 1017 10 16 0.02 0.51
11:53 am 11:53 Mostly Cloudy 69 20.6 64 17.8 84 84 S 14 22 29.98 1015 10 16 0.00 0.00
12:53 pm 12:53 Mostly Cloudy 71 21.7 63 17.2 76 76 S 16 26 29.93 1014 10 16 0.00 0.00
1:41 pm 13:41 Mostly Cloudy 71 21.7 62 16.7 73 73 S 21 33 29.91 1013 10 16 0.00 0.00
1:53 pm 13:53 Mostly Cloudy 71 21.7 62 16.7 73 73 S 21 33 29.92 1013 10 16 0.00 0.00
2:34 pm 14:34 Cloudy 69 20.6 62 16.7 78 78 SSE 22 35 29.90 1012 10 16 0.00 0.00
2:53 pm 14:53 Cloudy 70 21.1 62 16.7 76 76 SSE 20 31 29.91 1013 10 16 0.00 0.00
3:01 pm 15:01 Cloudy 70 21.1 62 16.7 76 76 SSE 21 33 29.90 1012 10 16 0.00 0.00
3:53 pm 15:53 Cloudy 70 21.1 62 16.7 76 76 SSE 16 26 29.91 1013 10 16 0.00 0.00
4:53 pm 16:53 Cloudy 67 19.4 61 16.1 81 81 SSE 12 19 29.91 1013 10 16 0.00 0.00
5:53 pm 17:53 Cloudy with Light Rain 65 18.3 62 16.7 90 90 SE 12 19 29.91 1013 10 16 0.00 0.00
6:53 pm 18:53 Cloudy 64 17.8 63 17.2 96 96 ESE 8 13 29.91 1013 10 16 0.00 0.00
7:53 pm 19:53 Cloudy 64 17.8 63 17.2 96 96 SE 5 7 29.92 1013 10 16 0.00 0.00
8:53 pm 20:53 Cloudy 65 18.3 62 16.7 90 90 E 5 7 29.91 1013 10 16 0.00 0.00
9:53 pm 21:53 Cloudy 64 17.8 62 16.7 93 93 ESE 7 11 29.91 1013 10 16 0.00 0.00
10:11 pm 22:11 Cloudy 64 17.8 62 16.7 93 93 E 7 11 29.90 1012 10 16 0.00 0.00
10:18 pm 22:18 Cloudy 64 17.8 62 16.7 93 93 E 8 13 29.90 1012 10 16 0.00 0.00
10:53 pm 22:53 Cloudy 64 17.8 62 16.7 93 93 SE 8 13 29.90 1013 10 16 0.00 0.00
11:12 pm 23:12 Cloudy 64 17.8 62 16.7 93 93 SE 8 13 29.89 1012 10 16 0.00 0.00
11:41 pm 23:41 Cloudy 64 17.8 62 16.7 93 93 ESE 7 11 29.88 1012 10 16 0.00 0.00
11:53 pm 23:53 Cloudy 65 18.3 62 16.7 90 90 ESE 7 11 29.88 1012 10 16 0.00 0.00

Powered by AerisWeather